SCP
-0 0 0 0 0 0 0 0 0 0 0 0 0 0 0 0 0 -0 -0 -0 -0 -0 -0 -0 -0 -0 -0 -0 -0 -0 0 -0 -0 -0 -0 -0 -0 0 0 0 1 1 1 1
0 0 0 0 0 0 0 0 0 0 0 0 0 0 0 -0 0 0 0 0 0 0 0 0 -0 -0 -0 -0 -0 -0 0 -0 -0 -0 -0 -0 0 0 0 0 1 1 1 1
0 0 0 0 0 0 0 0 0 0 0 0 0 0 0 0 0 0 0 0 0 0 0 0 0 -0 -0 -0 -0 0 0 -0 -0 -0 -0 0 0 0 0 0 1 1 1 1
0 0 0 0 0 0 0 0 0 0 0 0 0 0 0 0 0 0 0 0 0 0 0 0 0 -0 -0 -0 0 0 0 0 -0 -0 -0 0 0 0 0 0 0 0 0 0
0 0 0 0 0 0 0 0 0 0 0 0 0 0 0 0 0 0 0 0 0 0 0 0 0 0 0 0 0 0 0 0 0 0 -0 0 0 0 0 0 0 0 0 0
0 0 0 0 0 0 0 0 0 0 0 0 0 0 0 0 0 0 0 0 0 0 0 0 0 0 0 0 0 0 0 0 0 0 -0 -0 0 0 0 0 0 0 0 0
0 0 0 0 0 0 0 0 0 0 0 0 0 0 0 0 0 0 0 -0 -0 -0 0 0 0 0 0 0 0 0 0 0 0 0 0 -0 -0 0 0 0 0 0 0 0
0 0 0 0 0 0 0 0 0 0 0 0 0 0 0 0 0 0 0 0 0 0 0 0 0 0 0 0 0 0 0 0 0 0 0 0 -0 -0 -0 -0 0 0 0 0
0 0 0 0 -0 -0 -0 -0 0 0 0 0 0 0 0 0 0 0 0 0 0 0 0 0 0 0 0 0 0 0 0 0 0 0 0 0 0 -0 -0 -0 -0 0 0 -0
0 0 0 0 -0 -0 -0 -0 0 0 0 0 0 0 0 0 0 0 0 0 0 0 0 0 0 0 0 0 0 0 0 0 0 0 0 0 0 0 -0 -0 -0 0 -0 -0
0 0 0 0 0 -0 -0 0 0 0 0 0 0 0 0 0 0 0 0 0 0 0 0 0 0 0 0 0 0 0 0 0 0 0 0 0 0 0 0 0 0 0 0 -0
0 0 0 0 0 0 0 0 0 0 0 0 0 0 0 0 0 0 0 0 0 0 0 0 0 0 0 0 0 0 0 0 0 0 0 0 0 0 0 0 0 0 0 -0
0 -0 -0 -0 0 0 0 0 0 0 0 0 0 0 0 0 0 0 0 0 0 0 0 0 0 0 0 0 0 0 0 -0 -0 0 0 0 0 0 0 0 0 0 -0 0
0 0 0 0 0 0 0 0 0 0 0 0 0 0 0 0 0 0 0 0 0 0 0 0 0 0 0 0 0 0 -0 -0 -0 -0 -0 -0 0 0 0 0 0 0 0 -0
0 0 0 0 0 0 0 0 0 0 0 0 0 0 0 0 0 0 0 0 0 0 0 0 0 0 0 0 0 -0 -0 -0 -0 -0 -0 -0 0 0 0 0 0 0 0 0
0 0 0 0 0 0 0 0 0 0 0 0 0 0 0 0 0 0 0 0 0 0 0 0 0 0 0 0 0 -0 -0 -0 -0 -0 -0 0 0 0 0 0 0 0 0 0
0 0 0 0 0 0 0 0 0 0 0 0 0 0 0 0 0 0 0 0 0 0 0 0 0 0 0 0 0 -0 -0 -0 -0 0 0 0 0 0 0 0 0 0 0 0
0 0 0 0 0 0 0 0 0 0 0 0 0 0 0 0 0 0 0 0 0 0 0 0 0 0 0 0 -0 -0 -0 0 0 0 0 0 0 0 0 0 0 0 0 0
0 0 0 0 0 0 0 0 0 0 0 0 0 0 0 0 0 0 0 0 0 0 0 0 0 0 0 -0 -0 -0 -0 0 0 0 0 0 -0 -0 -0 0 0 0 0 0
0 0 0 0 0 0 0 0 0 0 0 0 0 0 0 0 0 0 0 0 0 0 0 0 0 -0 -0 -0 -0 -0 0 0 0 -0 -0 -0 -0 0 0 0 0 0 0 0
0 0 0 0 0 0 0 0 0 0 0 0 0 0 0 0 0 0 0 0 0 0 0 0 -0 -0 -0 0 0 0 0 0 0 0 0 0 0 0 0 0 0 0 0 0
0 0 0 0 0 0 0 0 0 0 0 0 0 0 0 0 0 0 0 0 0 0 -0 -0 -0 -0 -0 0 0 0 0 0 0 0 0 0 0 0 0 0 0 0 0 0
0 0 0 0 0 0 0 0 0 0 0 0 0 0 0 0 0 0 0 0 0 -0 -0 -0 -0 -0 0 0 0 0 0 0 0 0 0 0 0 0 0 0 0 0 0 0
0 0 0 0 0 0 0 0 0 0 0 0 0 0 0 0 0 0 0 0 0 -0 -0 0 0 0 0 0 0 0 0 0 0 0 0 0 0 0 0 0 0 0 0 0
0 0 0 0 0 0 0 0 0 0 0 0 0 0 0 0 0 0 0 0 0 -0 0 0 0 0 0 0 0 0 0 0 0 0 0 0 0 0 0 0 0 0 0 0
0 0 0 0 0 0 0 0 0 0 0 0 0 0 0 0 0 0 0 0 0 0 0 0 0 0 0 0 0 0 0 0 0 0 0 0 0 0 0 0 0 0 0 0
0 0 0 0 0 0 0 0 0 0 0 0 0 0 0 0 0 0 0 0 0 0 0 0 0 0 0 0 0 0 0 0 0 0 0 0 0 0 0 0 0 0 0 -0
Wind_Speed
11 11 9 7 8 9 9 10 12 12 6 7 9 11 12 13 14 16 15 13 12 11 10 10 9 10 10 10 10 10 10 11 12 13 14 15 15 14 14 13 15 15 13 11
11 7 4 5 10 7 7 8 7 5 3 8 11 10 12 14 16 17 17 16 16 16 16 15 14 14 14 14 13 12 12 13 11 12 14 13 14 14 14 13 13 14 15 13
9 4 9 4 10 10 6 5 6 5 7 11 13 14 15 18 20 19 18 19 20 20 19 19 18 17 17 16 15 14 13 14 13 13 14 14 14 14 13 12 12 13 14 14
9 10 7 9 5 7 6 3 1 3 9 13 17 19 19 21 19 18 20 22 21 21 21 20 20 20 20 20 18 17 16 16 15 15 15 15 14 13 12 11 10 10 12 14
7 11 6 6 7 12 12 10 6 8 17 20 23 24 21 16 19 22 23 22 22 22 23 22 22 21 21 20 20 19 18 18 17 17 17 16 15 14 12 11 11 10 10 12
7 10 5 8 11 13 11 8 1 17 22 24 25 22 18 21 23 23 24 22 22 22 23 22 20 20 21 21 20 21 20 19 19 17 17 17 16 14 13 12 12 11 8 8
9 8 6 8 12 14 11 13 19 23 24 24 23 21 24 25 25 25 24 23 23 22 20 19 18 19 20 21 20 20 20 20 20 18 17 17 15 14 13 13 13 11 9 6
7 7 3 10 12 11 14 19 22 24 23 23 24 25 25 26 26 25 24 24 24 21 20 19 18 18 21 21 20 19 18 19 20 20 18 16 15 13 13 13 13 12 9 6
6 6 4 8 12 14 17 22 23 21 22 24 25 26 27 26 25 24 24 23 22 22 22 21 19 19 21 21 19 18 17 18 19 20 18 16 15 14 13 12 12 10 7 5
7 5 8 14 15 17 19 21 22 22 23 24 27 27 27 25 24 25 24 23 22 23 22 21 20 19 19 20 19 19 19 17 16 16 16 15 12 12 12 11 10 8 6 5
9 9 13 13 18 20 20 20 22 22 23 25 26 27 26 25 25 23 23 23 22 20 20 22 21 20 19 19 17 18 18 17 15 14 14 13 12 10 10 9 6 5 5 5
8 12 15 20 20 21 21 21 22 24 25 24 25 26 27 25 24 24 24 24 23 21 20 22 22 21 19 18 17 17 16 14 12 10 10 10 10 10 11 10 5 6 7 6
11 16 17 20 21 21 20 23 24 24 25 26 24 25 27 25 24 25 26 26 24 22 22 22 22 21 19 16 15 15 15 13 10 9 9 9 10 11 9 8 7 7 8 8
12 14 18 20 20 21 22 24 24 24 24 25 25 26 25 25 26 27 26 25 22 21 22 22 21 20 17 14 13 14 13 12 10 8 9 10 11 12 10 9 9 8 7 8
13 16 18 20 20 22 23 23 24 24 24 25 25 25 26 27 27 27 25 22 21 21 21 20 20 18 14 13 13 12 9 6 6 7 8 9 11 11 10 10 8 7 6 8
16 17 18 19 21 23 24 24 24 25 26 27 26 26 27 27 27 26 23 22 22 22 21 20 18 15 12 12 10 7 4 8 8 7 8 9 11 11 9 8 7 6 5 5
16 18 19 21 22 23 23 24 24 25 27 27 27 28 28 28 27 25 24 23 22 21 20 18 15 11 11 9 7 4 4 5 9 8 8 10 10 8 7 6 5 4 4 5
14 17 19 21 21 22 24 24 24 25 25 26 27 27 27 26 26 25 25 24 22 20 17 13 10 10 9 8 4 2 2 2 3 5 6 6 5 5 5 4 4 3 4 5
15 17 19 20 20 21 22 23 23 23 24 24 25 25 25 24 24 24 23 22 20 17 15 13 11 9 7 5 3 2 2 3 3 3 4 4 4 4 4 3 3 4 6 7
14 16 18 20 20 21 21 21 22 21 22 24 24 23 24 25 25 24 22 18 14 13 16 14 10 6 4 2 2 1 2 3 3 4 4 4 4 4 4 5 6 6 7 10
15 16 18 19 20 20 20 21 20 21 23 23 23 23 24 25 24 22 19 16 16 18 17 12 6 4 3 2 4 2 2 3 3 3 3 4 5 5 6 5 5 7 11 12
14 14 16 18 19 19 18 18 19 21 22 22 23 22 23 23 23 21 19 14 17 21 14 7 5 5 5 4 3 1 2 2 3 3 3 4 4 3 2 2 4 8 11 12
12 13 15 16 17 18 18 18 19 19 20 21 21 21 21 20 16 16 17 16 16 21 13 8 9 7 5 3 1 1 1 2 2 2 3 2 2 3 2 4 6 9 10 10
11 12 13 14 15 16 17 18 19 17 19 19 18 20 18 16 15 14 14 19 22 21 11 11 12 10 6 2 2 1 0 1 1 2 2 3 2 2 3 5 8 10 10 12
11 11 12 13 13 12 15 16 17 18 18 16 19 20 16 12 13 15 15 18 21 19 13 12 14 12 8 6 4 2 1 0 0 1 3 3 3 4 5 7 9 10 10 9
9 9 9 10 10 10 12 12 13 14 15 15 16 16 15 14 15 14 14 17 20 17 14 12 12 11 9 8 7 6 5 5 5 4 5 6 7 7 8 8 10 8 8 7
8 7 7 8 8 10 11 12 12 13 13 15 16 15 15 15 15 16 17 15 14 14 13 12 12 11 11 10 9 7 6 5 6 6 6 7 7 7 8 9 7 7 7 7
Wind_Direction
282 292 291 310 342 339 321 319 308 332 26 40 2 340 327 315 307 302 299 297 293 289 286 281 277 275 274 276 279 282 288 293 299 304 308 311 312 310 305 290 269 252 239 230
281 287 291 70 21 7 8 350 346 342 26 10 336 314 295 290 289 291 294 294 295 293 290 285 279 274 270 263 257 251 261 269 272 280 287 291 294 296 299 298 284 262 243 229
296 323 258 116 24 7 9 7 353 356 342 322 304 294 294 299 298 297 300 305 307 307 307 306 301 297 292 285 279 274 271 275 272 270 276 279 284 292 299 302 298 276 252 235
298 297 295 80 47 7 331 265 221 317 305 297 299 307 307 299 305 314 315 313 311 308 306 304 302 301 300 296 289 283 280 280 277 275 278 279 280 285 292 297 298 290 268 246
316 307 105 109 24 347 317 284 229 298 315 319 319 311 303 321 331 318 311 309 307 304 303 303 302 301 299 295 290 283 280 280 278 276 277 275 274 277 283 289 291 287 282 263
335 315 344 56 2 332 302 274 261 321 320 321 320 312 317 327 317 311 310 308 306 305 303 301 301 301 299 296 293 290 289 289 283 277 274 271 269 272 275 279 281 279 275 270
333 320 64 21 341 326 310 330 328 318 318 317 316 310 310 312 310 309 307 306 306 304 302 302 302 300 294 292 291 291 291 291 286 279 273 266 263 262 265 268 274 278 272 263
331 324 20 7 340 336 317 316 316 316 315 315 312 309 309 309 309 309 307 307 307 305 304 303 301 296 291 289 291 291 290 289 285 279 272 267 263 257 255 260 264 266 264 248
333 333 346 331 318 317 320 318 317 315 315 313 310 310 311 311 310 308 307 306 306 306 306 304 300 295 289 288 287 282 280 282 281 276 269 265 264 260 251 245 251 258 255 236
296 289 307 315 313 322 324 319 315 313 312 311 310 311 311 310 309 308 306 305 305 306 305 303 298 291 284 284 283 279 276 273 271 271 267 260 254 251 249 247 249 254 253 231
286 310 312 308 322 325 320 316 313 312 311 311 311 310 311 310 309 308 307 305 304 305 303 299 296 290 286 286 282 277 274 270 262 256 260 261 254 249 255 255 259 264 258 222
320 328 315 315 323 319 317 316 316 315 313 312 311 310 311 310 309 307 305 305 307 308 303 298 295 291 290 288 283 275 270 264 259 250 243 248 252 246 225 231 183 198 229 224
303 314 313 312 314 318 318 316 316 315 313 313 313 313 312 310 308 307 306 307 310 309 303 297 294 292 294 293 289 281 270 259 248 241 234 239 249 247 232 193 184 194 201 198
312 316 312 315 318 319 318 317 315 314 313 314 313 313 312 310 308 307 308 311 311 307 302 297 294 295 299 300 297 289 275 255 241 231 232 236 239 235 225 206 189 191 183 187
321 317 312 316 318 319 320 319 318 318 318 317 317 316 315 312 309 310 312 314 311 306 302 300 296 297 303 302 299 294 278 244 230 229 228 231 232 226 215 202 190 183 167 167
316 314 317 320 322 322 322 322 321 321 321 320 320 319 316 313 313 314 315 314 311 308 305 301 295 297 304 302 299 295 268 238 231 229 225 224 221 213 199 184 180 181 177 165
317 321 325 326 326 324 323 323 323 322 322 322 321 321 320 320 319 317 315 313 310 306 303 299 296 301 306 300 291 282 272 253 229 218 216 214 207 194 174 172 182 186 188 179
318 319 324 325 325 324 323 325 325 324 323 322 323 323 325 324 319 316 314 314 312 310 311 309 305 311 310 302 285 250 238 249 205 199 204 201 188 166 157 162 170 191 207 196
321 323 325 325 325 324 324 324 325 324 324 324 326 328 325 319 316 315 317 318 319 323 327 327 312 306 313 322 299 241 219 202 198 207 210 177 186 170 159 172 199 215 222 207
322 326 327 324 327 328 326 327 327 325 324 328 331 327 322 321 322 323 324 324 327 333 331 330 326 324 328 342 272 213 187 195 193 203 205 192 187 184 198 212 216 216 193 175
327 329 327 326 327 328 329 330 327 327 329 335 333 326 323 324 326 328 329 331 334 337 336 332 336 343 354 348 255 232 185 181 183 188 190 188 196 206 207 204 201 172 160 165
328 328 327 326 327 329 330 330 331 332 335 335 330 326 327 330 332 332 333 336 334 336 338 341 354 9 355 312 273 241 165 159 167 173 184 195 201 187 155 153 156 156 157 160
326 327 327 328 328 327 328 334 337 338 336 332 328 331 334 332 333 334 334 334 337 339 345 359 4 4 328 281 272 253 160 157 160 159 170 172 130 101 124 151 156 156 154 154
324 327 327 328 327 329 334 336 337 337 334 329 331 337 339 335 334 336 332 330 339 343 356 8 7 4 337 341 337 317 303 144 157 155 140 123 112 137 169 161 149 147 149 155
324 325 327 331 331 334 332 334 337 338 337 336 339 343 344 340 334 332 333 337 343 347 355 5 6 3 7 8 6 2 355 342 203 152 130 131 146 149 141 127 125 131 139 146
322 321 327 323 329 330 335 339 340 339 337 339 340 342 343 342 340 339 338 340 347 350 356 359 3 8 13 14 19 30 56 96 122 131 125 129 123 113 106 107 114 118 123 129
315 321 322 329 341 342 339 340 341 337 339 342 336 340 343 343 343 342 343 345 349 352 357 360 3 9 16 17 19 25 40 70 90 97 102 100 101 102 106 110 114 121 129 133